Location: Grand Lay
(47.3253°N, 0.9468°E)
Time: 08:46:05
(UTC+00:00)

Cosmos 1943 Rocket - Pass Details

Date: 18 January 2026
Orbit: 811 x 842 km, 71.0° (Epoch: 19 February)

Event Time Altitude Azimuth Distance (km) Brightness Sun altitude
Exits shadow 06:07:20 14° 245° (WSW) 2,140 3.9 -14.8°
Maximum altitude 06:11:35 36° 308° (NW) 1,267 2.7 -14.1°
Drops below altitude 10° 06:16:39 10° 14° (NNE) 2,411 4.6 -13.3°
Sets 06:19:17 0° 23° (NNE) 3,348 5.4 -12.9°
